STARLINK-32440, 61714

Orbit data source: Space-Track

STARLINK-32440, 61714 is a payload satellite in LEO that was launched on Wed, 30 Oct 2024 UTC via an FALCON 9 launch vehicle from the Air Force Eastern Test Range (AFETR). Payload-class satellites include a variety of spacecraft equipped with specific instruments for various scientific and technological missions. These include communications satellites like Starlink; space stations such as the ISS; scientific satellites like the Hubble; Earth observation satellites from companies like Planet Labs, Umbra, and HawkEye 360; GPS; miniature CubeSats for education and research; and military/defense satellites.

Loading next visibility...
Identifier
61714, 2024-196H
Orbit
LEO
Last TLE update
9 hours ago
Origin
Manufacturer
SpaceX/Seattle
Mission
Operational Commercial Communications
Bus & Motor
STARLINK V2M, Unknown motor
Mass
730 kg wet, ~700 kg dry
Launch date (UTC)
2024-10-30 (7 months ago)
Launch vehicle
FALCON 9
Launch site
Air Force Eastern Test Range (AFETR)
Object type
Payload
Rocket body
Debris
Shape & HBR
Box + 2 Pan, 29 m
Radar Cross Section
36.964 m², Large (>1 m²)

Expand to show TLE details & history

TLE from 9 hours ago
0 STARLINK-32440
1 61714U 24196H   25139.10324294 -.00003748  00000-0 -11441-3 0  9994
2 61714  53.1602  29.6922 0000981  62.2982 297.8119 15.30218856 31757
Epoch: 2025-05-19T02:28Z
TLE epoch observation values (Epoch: 2025-05-19T02:28:40.189Z)
Latitude
0.00001°
Longitude
115.50409°
Altitude
475.745 km
Speed
7.629 km/s
True Right ascension
01h 58m 46s
True Declination
0° 00' 00"
Sunlit
Object was in daylight at epoch
Visualization orbit readout
Latitude
-20.23359°
Longitude
-50.24709°
Altitude
481.329 km
Speed
7.625 km/s
Apparent Right ascension
12h 07m 48s
Apparent Declination
-42° 05' 08"
Sunlit
Object is in full shadow
Visualization observer readout
Local Sidereal Time
20:01:35
Azimuth
246.242° WSW
Elevation
-44.524°
Doppler factor
1
Orbital elements
Apogee altitude
476.088 km
Perigee altitude
474.743 km
Semi-major axis
6,853.552 km
Eccentricity
0.0001
Inclination
53.1602°
RAAN
29.6922°
Arg. of periapsis
62.2982°
True anomaly
Unknown
Mean anomaly
297.8119°
Eccentric anomaly
Unknown
Mean motion
3.82534 °/min
Orbital period
94.11 mins
BSTAR
-0.00011441
Loading maneuver chart data...
Loading SW <> Apogee altitude chart data...
Loading historical data...
Loading historical data...
Loading historical data...
Loading historical data...
Loading historical data...
Loading historical data...
Loading historical data...

STARLINK-32440 Visibility forecast

Observer location: undefined°, undefined°

Span
Click to sort rows by Start time (UTC) header in descending order
Start Az.
Max El. time (UTC)
Max El. Az.
Max El.
End time (UTC)
End Az.
4 mins2025-05-19 18:18:33.018Z167.767° S2025-05-19 18:20:33.018Z130.101° SE17.903°2025-05-19 18:22:33.018Z91.238° ESE
5 mins2025-05-19 19:56:33.018Z261.566° W2025-05-19 19:58:33.018Z343.02° N36.745°2025-05-19 20:01:33.018Z40.13° NE
4 mins2025-05-20 00:53:33.018Z350.423° N2025-05-20 00:55:33.018Z37.303° NE20.75°2025-05-20 00:57:33.018Z74.522° E
5 mins2025-05-20 02:31:33.018Z292.539° NW2025-05-20 02:33:33.018Z199.699° SSW39.62°2025-05-20 02:36:33.018Z145.294° SSE
|